Tracking 35237 objects as of 6-Sep-2026
HD Live streaming from Space Station
objects crossing your sky now

COSMOS 2372 DEB


COSMOS 2372 DEB is no longer on orbit


NORAD ID: 26748
Int'l Code: 2000-056H
Launch date: September 25, 2000
Source: Commonwealth of Independent States (former USSR) (CIS)
Launch site: TYURATAM MISSILE AND SPACE COMPLEX (TTMTR)
Decay date: 2001-04-21

Note: This is SATELLITE DEBRIS
Your satellite tracking list
Your tracking list is empty




NASA's NSSDC Master Catalog

Two Line Element Set (TLE):
1 26748U 00056H   01111.22883176  .65433394  68645-5  20510-2 0  9990
2 26748 064.6236 146.9433 0105370 111.4648 249.7822 16.26492226    56
Source of the keplerian elements: AFSPC